Location: Ferchesar
(52.6477°N, 12.4298°E)
Time: 23:30:51
(UTC+01:00)

TIGRISAT - Pass Details

Date: 21 October 2021
Orbit: 603 x 689 km, 97.7° (Epoch: 30 November)

Event Time Altitude Azimuth Distance (km) Brightness Sun altitude
Rises 05:17:00 0° 105° (ESE) 3,059 ? -23.3°
Reaches altitude 10° 05:20:27 10° 78° (ENE) 2,142 ? -22.8°
Maximum altitude 05:22:29 13° 52° (NE) 1,953 ? -22.5°
Drops below altitude 10° 05:24:31 10° 26° (NNE) 2,135 ? -22.2°
Sets 05:27:57 0° 359° (N) 3,041 ? -21.7°
